Date,TemperatureHighF,TemperatureAvgF,TemperatureLowF,DewpointHighF,DewpointAvgF,DewpointLowF,HumidityHigh,HumidityAvg,HumidityLow,PressureMaxIn,PressureMinIn,WindSpeedMaxMPH,WindSpeedAvgMPH,GustSpeedMaxMPH,PrecipitationSumIn
2013-7-1,84,73,61,64,60,57,90,66,43,30.00,29.91,13,5,20,0.00
2013-7-2,86,72,56,61,57,53,95,62,34,30.06,29.96,11,3,19,0.00
2013-7-3,88,74,56,64,57,53,95,61,32,30.04,29.91,7,1,10,0.00
2013-7-4,91,78,67,68,62,57,82,60,33,29.97,29.87,16,2,24,0.00
2013-7-5,92,81,70,70,65,63,83,61,39,29.96,29.82,7,2,12,0.00
2013-7-6,92,81,71,72,66,62,78,61,44,29.91,29.82,9,3,15,0.00
2013-7-7,93,83,72,75,69,64,85,64,42,29.97,29.88,9,2,16,0.02
2013-7-8,92,82,74,76,73,70,93,74,51,30.04,29.93,8,3,14,0.00
2013-7-9,94,85,75,74,69,65,85,62,39,30.06,29.92,8,3,16,0.00
2013-7-10,97,87,79,77,72,66,80,62,44,29.99,29.84,6,2,12,0.00
2013-7-11,101,85,77,76,72,68,81,65,37,29.91,29.81,11,2,24,0.01
2013-7-12,96,84,70,75,71,68,96,70,43,29.94,29.84,8,2,16,0.00
2013-7-13,95,84,73,72,68,62,83,59,41,29.97,29.83,10,3,17,0.01
2013-7-14,78,72,67,69,65,62,90,80,61,29.97,29.86,7,1,14,0.07
2013-7-15,75,69,65,71,66,62,98,91,82,30.08,29.93,8,1,17,0.22
2013-7-16,88,78,69,75,71,68,98,82,60,30.14,30.06,10,2,16,0.00
2013-7-17,90,80,71,76,72,69,97,79,56,30.20,30.10,9,3,19,0.01
2013-7-18,92,81,68,75,71,67,98,76,50,30.15,29.96,9,1,12,0.00
2013-7-19,92,78,72,75,72,70,95,84,49,30.00,29.88,13,1,22,0.67
2013-7-20,92,79,72,78,73,71,97,83,51,29.94,29.79,6,1,12,0.01
2013-7-21,93,82,72,78,74,71,97,77,52,29.87,29.77,8,3,14,0.00
2013-7-22,94,85,76,79,74,71,95,73,51,29.90,29.79,8,4,16,0.00
2013-7-23,95,86,78,81,75,69,86,71,53,29.90,29.74,8,3,16,0.00
2013-7-24,87,78,70,76,71,68,97,80,64,30.03,29.79,19,2,43,0.26
2013-7-25,83,73,67,73,70,66,98,89,67,30.01,29.93,4,0,8,0.00
2013-7-26,90,78,72,78,74,70,98,87,65,29.99,29.78,19,4,26,0.94
2013-7-27,85,77,70,72,69,67,94,79,58,29.99,29.87,10,4,16,0.00
2013-7-28,89,78,66,72,69,65,98,77,53,29.96,29.84,11,3,17,0.00
2013-7-29,91,82,75,77,73,69,93,75,56,29.95,29.86,10,4,18,0.00
2013-7-30,93,84,74,77,72,65,88,67,50,30.02,29.89,11,4,20,0.00
2013-7-31,97,87,77,78,73,68,82,65,48,29.99,29.87,9,2,14,0.00